Weather in Guelmim

Morocco     28°59′28″N   10°03′32″W
temp.,
°C
wind,
m/s
gust,
m/s
humid.,
%
clouds,
%
prec.,
mm/h
press.,
hPa
HPBL,
m
13 april, tue
tue1300:00+15w22805 0.0 101752
03:00+13w349539 0.0 101694
06:00+13wsw119364 0.0 1015175
09:00+17w3271100 0.0 1017316
12:00+24w4343100 0.0 1015607
15:00+27wnw8636100 0.0 1012821
18:00+21wnw674993 0.0 1013435
21:00+16wnw6877100 0.0 1016413
14 april, wed
wed1400:00+16nw49809 0.0 1015497
03:00+15nw34843 0.0 101386
06:00+14nw46894 0.0 1013106
09:00+19nnw712530 0.0 1014744
12:00+22nw1013470 0.0 10131007
15:00+22nw1213500 0.0 10131095
18:00+18nw1113688 0.0 1013889
21:00+16nw7128465 0.0 1014641
15 april, thu
thu1500:00+16nw81280100 0.1 1013862
03:00+16nw8127892 0.0 1012869
06:00+15nw71178100 0.1 1012821
09:00+17nw810652 0.0 10141010
12:00+21nw1011460 0.0 10131330
15:00+21nw1011481 0.0 10121314
18:00+17nw10116513 0.0 10131062
21:00+15nw6108398 0.0 1014637
16 april, fri
fri1600:00+15nnw7117567 0.0 1014806
03:00+15nnw8117598 0.0 1012818
06:00+15nnw7117454 0.0 1012771
09:00+17nnw68637 0.0 1013876
12:00+22nw78405 0.0 10121144
15:00+22nw98404 0.0 10101039
18:00+19nnw811575 0.0 1011797
21:00+15nw468037 0.0 1013323
17 april, sat
sat1700:00+15nw338229 0.0 1012184
03:00+14nw228929 0.0 1011136
06:00+13wnw11933 0.0 101212
09:00+18wsw21690 0.0 1013422
12:00+25wsw22360 0.0 10121061
15:00+28w86330 0.0 10101416
18:00+24nw66390 0.0 1011517
21:00+17w33720 0.0 1014113